Regional Weather Roundup
Issued by NWS

Home | Current Version | Previous Version | Text Only | Print | Product List | Glossary On
Versions: 1 2 3 4 5 6 7 8 9 10 11 12 13 14 15 16 17 18 19 20 21 22 23 24 25 26 27 28 29 30 31 32 33 34 35 36 37 38 39 40 41 42 43 44 45 46 47 48 49 50
000
ASUS44 KOUN 190010
RWROK

WEATHER ROUNDUP FOR OKLAHOMA
NATIONAL WEATHER SERVICE NORMAN OK
700 PM CDT FRI AUG 18 2017

NOTE: "FAIR" INDICATES FEW OR NO CLOUDS BELOW 12,000 FEET WITH NO
      SIGNIFICANT WEATHER AND/OR OBSTRUCTIONS TO VISIBILITY.

OKZ001>007-009>012-014-015-017-190100-
NORTHWEST OKLAHOMA AND THE PANHANDLE

CITY           SKY/WX    TMP DP  RH WIND       PRES   REMARKS
GAGE           SUNNY     90  66  45 S13       29.98S HX  92
6HR MIN TEMP:  88; 6HR MAX TEMP:  92;

GUYMON         SUNNY     89  66  46 S8        30.01S HX  91
ENID/WOODRING  MOSUNNY   93  70  46 S6        29.91F HX  99
$$

OKZ016-021>023-033>039-044-045-190100-
SOUTHWEST OKLAHOMA

CITY           SKY/WX    TMP DP  RH WIND       PRES   REMARKS
LAWTON/REGL    SUNNY     91  73  55 S3        29.94F HX  99
6HR MIN TEMP:  89; 6HR MAX TEMP:  92;

LAWTON/FT SILL SUNNY     91  75  59 SW6       29.93F HAZE    HX 102
FREDERICK      SUNNY     93  70  46 SW7       29.92S HX  99
CLINTON        SUNNY     90  66  45 S12       29.99S HX  92
HOBART         SUNNY     92  68  45 SW7       29.97S HX  96
ALTUS AFB      SUNNY     92  70  48 N7        29.94F HX  97
$$

OKZ018>020-024>031-190100-
CENTRAL OKLAHOMA

CITY           SKY/WX    TMP DP  RH WIND       PRES   REMARKS
OKLAHOMA CITY  MOSUNNY   88  71  57 SW12      29.95S HX  94
6HR MIN TEMP:  87; 6HR MAX TEMP:  91;

OKC/WILEY POST SUNNY     89  73  59 SW14      29.95S HX  97
OKC/TINKER AFB SUNNY     89  72  57 SW10      29.95S HX  96
STILLWATER     SUNNY     90  67  46 S6        29.92F HX  93
GUTHRIE        SUNNY     91  67  44 SW5       29.92F HX  94
$$

OKZ008-013-054>072-190100-
NORTHEAST OKLAHOMA

CITY           SKY/WX    TMP DP  RH WIND       PRES   REMARKS
TULSA          MOSUNNY   91  71  51 W12       29.89F HX  97
6HR MIN TEMP:  85; 6HR MAX TEMP:  93;

TULSA/JONES    SUNNY     90  71  53 SW7       29.91S HX  96
PONCA CITY     SUNNY     90  67  46 VRB5      29.91F HX  93
BARTLESVILLE   SUNNY     87  70  56 SW5       29.92S HX  92
MUSKOGEE       SUNNY     89  75  63 S6        29.92F HX  99
$$

OKZ032-040>043-046>053-073>077-190100-
SOUTH CENTRAL/SOUTHEAST OKLAHOMA

CITY           SKY/WX    TMP DP  RH WIND       PRES   REMARKS
ARDMORE/DWNTWN SUNNY     86  70  58 SW3       29.95R HX  90
MCALESTER      SUNNY     90  76  63 SW7       29.94S HX 101
$$





USA.gov is the U.S. government's official web portal to all federal, state and local government web resources and services.